Location: Gro�sch�nbrunn
(49.5760°N, 11.8868°E)
Time: 03:55:51
(UTC+00:00)

Cosmos 2034 Rocket - Pass Details

Date: 18 September 2020
Orbit: 957 x 1001 km, 82.9° (Epoch: 19 October)

Event Time Altitude Azimuth Distance (km) Brightness Sun altitude
Rises 18:54:22 0° 179° (S) 3,712 6.8 -16.0°
Reaches altitude 10° 18:56:53 10° 177° (S) 2,766 6.1 -16.3°
Maximum altitude 19:03:13 71° 95° (E) 1,053 4.0 -17.3°
Drops below altitude 10° 19:09:33 10° 13° (NNE) 2,769 6.5 -18.2°
Sets 19:12:04 0° 12° (NNE) 3,717 7.2 -18.6°
